Home > Weather > Nome > Past weeks

Flag for USA Past Weather in Nome, Alaska, USA — Yesterday and Last 2 Weeks

Now
46 °F

Partly cloudy.


Feels Like: 41 °F
Forecast: 42 / 54 °F
Wind: 10 mph from North

Location: Nome Airport

Current Time: Jul 30, 2016 at 5:22:43 AM

Latest Report: Jul 30, 2016 at 4:53 AM


Visibility: 10 mi

Pressure: 29.81 "Hg

Humidity: 86%

Dew Point: 42 °F

Location of NomeLocation

Past Weather in Nome — Graph

°F

Nome Temperature Yesterday

Maximum temperature yesterday: 51 °F (at 12:53 AM)
Minimum temperature yesterday: 46 °F (at 7:04 AM)
Average temperature yesterday: 49 °F

High & Low Weather Summary for the Past Weeks

 TemperatureHumidityPressure
High66 °F (Jul 24, 8:53 PM)100% (Jul 16, 12:00 PM)30.29 "Hg (Jul 16, 12:00 PM)
Low44 °F (Jul 27, 6:53 AM)45% (Jul 24, 8:53 PM)29.67 "Hg (Jul 23, 2:53 PM)
Average52 °F90%29.89 "Hg
* Reported Jul 15 3:53 AM — Jul 30 3:53 AM, Nome, Weather by CustomWeather, © 2016

Note: Actual official high and low records may vary slightly from our data, if they occured in-between our weather recording intervals... More about our weather records

Advertising

Nome Weather History for the Previous 24 Hours

Scroll right to see more
 ConditionsComfort  
Time TempWeatherWind HumidityBarometerVisibility
3:53 AM
Sat, Jul 30
47 °FOvercast.13 mph86%29.81 "Hg10 mi
2:53 AM48 °FMostly cloudy.15 mph83%29.80 "Hg10 mi
1:53 AM48 °FPartly sunny.12 mph86%29.80 "Hg10 mi
12:53 AM48 °FPartly sunny.9 mph89%29.80 "Hg10 mi
11:53 PM
Fri, Jul 29
49 °FLight rain. Mostly cloudy.8 mph90%29.80 "Hg10 mi
10:53 PM50 °FLight rain. Overcast.6 mph86%29.79 "Hg10 mi
9:53 PM50 °FLight rain. Overcast.7 mph93%29.78 "Hg8 mi
8:53 PM51 °FLight rain. Overcast.7 mph89%29.78 "Hg9 mi
8:00 PM51 °FLight rain. Mostly cloudy.6 mph92%29.78 "Hg8 mi
7:53 PM51 °FLight rain. Mostly cloudy.6 mph89%29.78 "Hg7 mi
6:53 PM51 °FLight rain. Mostly cloudy.8 mph89%29.77 "Hg8 mi
5:53 PM51 °FLight rain. Mostly cloudy.13 mph89%29.77 "Hg7 mi
4:53 PM51 °FLight rain. Overcast.10 mph92%29.76 "Hg8 mi
3:53 PM51 °FLight rain. Fog.10 mph92%29.76 "Hg4 mi
2:53 PM51 °FRain. Fog.8 mph92%29.76 "Hg5 mi
1:53 PM50 °FRain. Fog.10 mph96%29.75 "Hg4 mi
12:53 PM50 °FLight rain. Fog.8 mph93%29.74 "Hg5 mi
11:53 AM49 °FLight rain. Fog.8 mph97%29.75 "Hg5 mi
10:53 AM48 °FLight rain. Mostly cloudy.8 mph96%29.76 "Hg7 mi
9:53 AM48 °FLight rain. Fog.8 mph93%29.77 "Hg6 mi
8:53 AM47 °FLight rain. Fog.6 mph97%29.78 "Hg5 mi
7:53 AM47 °FRain. Fog.6 mph97%29.79 "Hg3 mi
7:04 AM46 °FRain. Fog.5 mph96%29.79 "Hg5 mi
6:53 AM47 °FRain. Mostly cloudy.3 mph93%29.80 "Hg7 mi
5:53 AM47 °FLight rain. Overcast.No wind90%29.81 "Hg7 mi
Weather by CustomWeather, © 2016

See weather overviewHow to use our weather pages